Simultaneous Nadir Overpasses (SNOs) Predictions

Prediction of SNOs between LANDSAT-8 and NOAA-19 Satellite Orbit:

Table of predicted SNOs for the next 14.0 days since TLE Epoch: 2/4/2023
Index Date (LANDSAT-8) Time (LANDSAT-8) Lat,Lon (LANDSAT-8) SZA (LANDSAT-8 ) Date (NOAA-19) Time (NOAA-19) Lat,Lon (NOAA-19) SZA (NOAA-19 ) Distance(km) Time Diff (sec)
1 02/04/2023 13:05:40 80.92, 20.42 98.52 02/04/2023 13:05:29 80.92, 20.57 98.53 2.55 11
2 02/06/2023 18:39:24 -80.91, 116.91 82.17 02/06/2023 18:38:11 -80.92, 116.75 82.20 3.14 73
3 02/06/2023 19:28:50 80.92, -75.40 97.83 02/06/2023 19:29:11 80.92, -75.42 97.84 0.54 21
4 02/09/2023 01:02:33 -80.93, 21.35 82.85 02/09/2023 01:01:51 -80.92, 21.25 82.88 1.94 42
5 02/09/2023 01:51:59 80.93,-170.98 97.15 02/09/2023 01:52:52 80.92,-171.10 97.15 2.55 53
6 02/11/2023 07:25:43 -80.91, -74.67 83.62 02/11/2023 07:25:32 -80.92, -74.67 83.61 0.96 11
7 02/13/2023 12:59:25 80.91, 21.89 95.65 02/13/2023 12:58:17 80.92, 21.93 95.64 1.29 68
8 02/13/2023 13:48:52 -80.92,-170.45 84.37 02/13/2023 13:49:12 -80.92,-170.27 84.34 3.39 20
9 02/15/2023 19:22:33 80.93, -73.66 94.92 02/15/2023 19:21:57 80.92, -73.56 94.90 1.94 36
10 02/15/2023 20:12:01 -80.91, 93.66 85.15 02/15/2023 20:12:53 -80.92, 93.71 85.11 1.92 52



Historial Predications of SNOs between LANDSAT-8 and NOAA-19
